Location: Roanoke
(37.2710°N, 79.9420°W)
Time: 17:22:43
(UTC-05:00)

S-56A Canister/Altair - Pass Details

Date: 26 November 2019
Orbit: 633 x 2499 km, 38.9° (Epoch: 04 December)

Event Time Altitude Azimuth Distance (km) Brightness Sun altitude
Rises 18:35:11 0° 281° (WNW) 5,284 13.0 -17.9°
Reaches altitude 10° 18:39:08 10° 282° (WNW) 3,999 12.2 -18.7°
Maximum altitude 18:49:04 89° 195° (SSW) 1,226 8.4 -20.6°
Enters shadow 18:52:28 33° 105° (ESE) 1,687 8.8 -21.3°
Drops below altitude 10° 18:55:27 10° 105° (ESE) 2,639 - -21.9°
Sets 18:57:35 0° 105° (ESE) 3,414 - -22.3°
